GORIZONT 20 [-]

Last updated on Dec. 5, 2020, 6:14 a.m. UTC

1 20659U 90054A   20339.55205459 -.00000152  00000-0  00000-0 0  9991
2 20659  14.5609 351.9060 0003736 145.0375 217.5652  1.00225284111439
UTC
Height (km)
Latitude
Longitude
Inclination
Orbital Period
UTC large
Height (km)
Speed (km/s)
/
Latitude / Longitude
Inclination (degrees)
Orbital Period (minutes)
Azimuth
Elevation
Range (km)
Doppler Factor
iOS Compass Heading
iOS Angle

Next 30 passes for location: Hong Kong

Rise time Rise Azimuth (degrees) Set time Set Azimuth (degrees) Duration Max altitude (degrees)

No matching passes for this satellites